Location: Nitra
(0.0000°N, 18.0833°E)
Time: 12:15:50
(UTC+01:00)

Cosmos 2322 Rocket - Pass Details

Date: 25 September 2022
Orbit: 833 x 850 km, 71.0° (Epoch: 26 November)

Event Time Altitude Azimuth Distance (km) Brightness Sun altitude
Rises 20:34:45 0° 189° (S) 3,391 5.5 -28.9°
Reaches altitude 10° 20:37:13 10° 186° (S) 2,457 4.7 -29.5°
Enters shadow 20:38:49 19° 182° (S) 1,878 4.0 -29.9°
